Ortonville, MN

3:01 PM CDT on March 23, 2017 (GMT -0500)
Ortonville Municipal-Martinson

Weather History for KVVV - January, 2012

Change the Weather History Date:

Monday, January 9, 2012

  Actual Average (KAQP) Record (KAQP)
Temperature  
Mean Temperature 42 °F -  
Max Temperature 53 °F 18 °F 53 °F (2012)
Min Temperature 30 °F 2 °F -23 °F (1999)
Degree Days  
Heating Degree Days 24    
Moisture  
Dew Point 22 °F    
Average Humidity 48    
Maximum Humidity 69    
Minimum Humidity 33    
Precipitation  
Precipitation 0.00 in - - ()
Sea Level Pressure  
Sea Level Pressure 29.93 in    
Wind  
Wind Speed 9 mph (West)    
Max Wind Speed 15 mph    
Max Gust Speed 18 mph    
Visibility 10 miles    
Events      
Averages and records for this station are not official NWS values.
T = Trace of Precipitation, MM = Missing Value Source: NWS Daily Summary

Daily Weather History Graph

Daily Weather History Graph

Search for Another Location

Airport or City:

Trip Planner

Search our weather history database for the weather conditions in past years. The results will help you decide how hot, cold, wet, or windy it might be!

Date:

Astronomy

Jan. 09, 2012 Rise Set
Actual Time 8:04 AM CST 5:01 PM CST
Civil Twilight 7:30 AM CST 5:34 PM CST
Nautical Twilight 6:53 AM CST 6:11 PM CST
Astronomical Twilight 6:18 AM CST 6:47 PM CST
Moon 5:52 PM CST (1/9) 8:02 AM CST (1/9)
Length of Visible Light 10h 04m
Length of Day
8h 57m
Full, 100% of the Moon is Illuminated
Jan 9
Full
Jan 16
Last Quarter
Jan 23
New
Jan 30
First Quarter
Feb 7
Full

Hourly Weather History & Observations

Time (CST) Temp. Windchill Dew Point Humidity Pressure Visibility Wind Dir Wind Speed Gust Speed Precip Events Conditions
12:14 AM 30.2 °F 23.4 °F 21.2 °F 69% 29.99 in 10.0 mi SW 6.9 mph - N/A   Clear
12:34 AM 32.0 °F 24.8 °F 19.4 °F 60% 29.98 in 10.0 mi SW 8.1 mph - N/A   Clear
12:53 AM 32.0 °F 25.6 °F 19.4 °F 60% 29.97 in 10.0 mi SW 6.9 mph - N/A   Clear
1:14 AM 32.0 °F 24.8 °F 19.4 °F 60% 29.96 in 10.0 mi SW 8.1 mph - N/A   Clear
1:34 AM 30.2 °F 23.4 °F 19.4 °F 64% 29.95 in 10.0 mi SW 6.9 mph - N/A   Clear
1:54 AM 32.0 °F 24.8 °F 19.4 °F 60% 29.94 in 10.0 mi SW 8.1 mph - N/A   Clear
2:14 AM 33.8 °F 26.4 °F 19.4 °F 56% 29.93 in 10.0 mi SW 9.2 mph - N/A   Mostly Cloudy
2:34 AM 35.6 °F 28.0 °F 17.6 °F 48% 29.93 in 10.0 mi WSW 10.4 mph - N/A   Scattered Clouds
2:54 AM 35.6 °F 27.1 °F 17.6 °F 48% 29.92 in 10.0 mi WSW 12.7 mph - N/A   Clear
3:14 AM 35.6 °F 27.5 °F 17.6 °F 48% 29.91 in 10.0 mi WSW 11.5 mph - N/A   Clear
3:34 AM 35.6 °F 29.9 °F 17.6 °F 48% 29.92 in 10.0 mi West 6.9 mph 10.4 mph N/A   Clear
3:54 AM 37.4 °F 30.8 °F 17.6 °F 45% 29.91 in 10.0 mi West 9.2 mph - N/A   Clear
4:14 AM 35.6 °F 28.0 °F 17.6 °F 48% 29.91 in 10.0 mi WNW 10.4 mph - N/A   Clear
4:33 AM 37.4 °F 31.4 °F 17.6 °F 45% 29.91 in 10.0 mi West 8.1 mph - N/A   Clear
4:54 AM 35.6 °F 28.0 °F 17.6 °F 48% 29.90 in 10.0 mi West 10.4 mph 17.3 mph N/A   Clear
5:13 AM 35.6 °F 28.6 °F 17.6 °F 48% 29.91 in 10.0 mi West 9.2 mph - N/A   Clear
5:34 AM 33.8 °F 27.0 °F 17.6 °F 52% 29.91 in 10.0 mi West 8.1 mph - N/A   Clear
5:54 AM 33.8 °F 26.4 °F 17.6 °F 52% 29.91 in 10.0 mi West 9.2 mph - N/A   Clear
6:14 AM 33.8 °F 26.4 °F 19.4 °F 56% 29.92 in 10.0 mi WNW 9.2 mph - N/A   Clear
6:34 AM 33.8 °F 25.8 °F 19.4 °F 56% 29.92 in 10.0 mi West 10.4 mph - N/A   Clear
6:54 AM 33.8 °F 26.4 °F 19.4 °F 56% 29.92 in 10.0 mi West 9.2 mph - N/A   Clear
7:13 AM 33.8 °F 25.8 °F 19.4 °F 56% 29.91 in 10.0 mi West 10.4 mph - N/A   Clear
7:34 AM 33.8 °F 24.3 °F 19.4 °F 56% 29.91 in 10.0 mi West 13.8 mph - N/A   Clear
7:54 AM 33.8 °F 24.3 °F 19.4 °F 56% 29.91 in 10.0 mi West 13.8 mph - N/A   Clear
8:14 AM 33.8 °F 25.8 °F 19.4 °F 56% 29.91 in 10.0 mi West 10.4 mph - N/A   Clear
8:34 AM 33.8 °F 26.4 °F 21.2 °F 60% 29.92 in 10.0 mi West 9.2 mph - N/A   Clear
8:54 AM 35.6 °F 28.6 °F 21.2 °F 56% 29.93 in 10.0 mi West 9.2 mph - N/A   Clear
9:14 AM 37.4 °F 30.3 °F 21.2 °F 52% 29.93 in 10.0 mi West 10.4 mph - N/A   Scattered Clouds
9:34 AM 37.4 °F 29.8 °F 21.2 °F 52% 29.93 in 10.0 mi West 11.5 mph - N/A   Scattered Clouds
10:14 AM 41.0 °F 33.1 °F 23.0 °F 49% 29.93 in 10.0 mi West 15.0 mph - N/A   Clear
10:33 AM 42.8 °F 35.8 °F 24.8 °F 49% 29.94 in 10.0 mi West 13.8 mph - N/A   Clear
10:54 AM 42.8 °F 36.2 °F 24.8 °F 49% 29.93 in 10.0 mi West 12.7 mph - N/A   Clear
11:14 AM 44.6 °F 38.1 °F 24.8 °F 46% 29.93 in 10.0 mi West 13.8 mph - N/A   Clear
11:33 AM 46.4 °F 40.1 °F 24.8 °F 43% 29.92 in 10.0 mi West 15.0 mph 18.4 mph N/A   Clear
11:54 AM 46.4 °F 40.4 °F 24.8 °F 43% 29.92 in 10.0 mi West 13.8 mph - N/A   Clear
12:14 PM 48.2 °F - 24.8 °F 40% 29.92 in 10.0 mi West 12.7 mph 18.4 mph N/A   Clear
12:33 PM 48.2 °F - 24.8 °F 40% 29.91 in 10.0 mi WNW 10.4 mph - N/A   Clear
12:54 PM 50.0 °F - 24.8 °F 37% 29.91 in 10.0 mi WNW 6.9 mph - N/A   Clear
1:14 PM 51.8 °F - 24.8 °F 35% 29.91 in 10.0 mi WNW 10.4 mph - N/A   Clear
1:33 PM 51.8 °F - 24.8 °F 35% 29.90 in 10.0 mi WNW 10.4 mph - N/A   Clear
1:54 PM 51.8 °F - 24.8 °F 35% 29.91 in 10.0 mi WNW 8.1 mph - N/A   Clear
2:13 PM 53.6 °F - 24.8 °F 33% 29.91 in 10.0 mi NW 8.1 mph - N/A   Clear
2:34 PM 53.6 °F - 24.8 °F 33% 29.91 in 10.0 mi WNW 10.4 mph - N/A   Clear
2:53 PM 53.6 °F - 24.8 °F 33% 29.92 in 10.0 mi WNW 10.4 mph - N/A   Clear
3:14 PM 51.8 °F - 24.8 °F 35% 29.93 in 10.0 mi NW 10.4 mph - N/A   Clear
3:34 PM 51.8 °F - 26.6 °F 38% 29.92 in 10.0 mi West 6.9 mph - N/A   Clear
3:54 PM 51.8 °F - 24.8 °F 35% 29.93 in 10.0 mi West 6.9 mph - N/A   Clear
4:14 PM 50.0 °F - 26.6 °F 40% 29.94 in 10.0 mi WNW 9.2 mph - N/A   Clear
4:34 PM 48.2 °F - 26.6 °F 43% 29.95 in 10.0 mi West 6.9 mph - N/A   Clear
4:54 PM 46.4 °F 42.4 °F 26.6 °F 46% 29.96 in 10.0 mi WNW 8.1 mph - N/A   Clear
5:14 PM 44.6 °F 40.2 °F 26.6 °F 49% 29.96 in 10.0 mi West 8.1 mph - N/A   Clear
5:33 PM 44.6 °F 42.2 °F 26.6 °F 49% 29.96 in 10.0 mi West 4.6 mph - N/A   Clear
5:54 PM 42.8 °F 40.1 °F 26.6 °F 53% 29.96 in 10.0 mi West 4.6 mph - N/A   Clear
6:14 PM 41.0 °F 36.4 °F 26.6 °F 57% 29.96 in 10.0 mi West 6.9 mph - N/A   Clear
6:34 PM 42.8 °F 39.3 °F 26.6 °F 53% 29.96 in 10.0 mi West 5.8 mph - N/A   Clear
6:54 PM 41.0 °F 36.4 °F 26.6 °F 57% 29.96 in 10.0 mi West 6.9 mph - N/A   Clear
7:14 PM 39.2 °F 33.6 °F 26.6 °F 61% 29.96 in 10.0 mi West 8.1 mph - N/A   Clear
7:33 PM 41.0 °F 35.8 °F 26.6 °F 57% 29.95 in 10.0 mi WSW 8.1 mph - N/A   Clear
7:54 PM 39.2 °F 34.2 °F 26.6 °F 61% 29.94 in 10.0 mi WSW 6.9 mph - N/A   Clear
8:14 PM 37.4 °F 32.1 °F 26.6 °F 65% 29.95 in 10.0 mi West 6.9 mph - N/A   Clear
8:34 PM 37.4 °F 32.8 °F 26.6 °F 65% 29.94 in 10.0 mi West 5.8 mph - N/A   Clear
8:54 PM 37.4 °F 32.1 °F 24.8 °F 60% 29.94 in 10.0 mi West 6.9 mph - N/A   Clear
9:14 PM 37.4 °F 32.8 °F 24.8 °F 60% 29.93 in 10.0 mi WSW 5.8 mph - N/A   Clear
9:34 PM 35.6 °F 32.8 °F 24.8 °F 65% 29.93 in 10.0 mi WSW 3.5 mph - N/A   Clear
9:54 PM 35.6 °F - 24.8 °F 65% 29.93 in 10.0 mi Calm Calm - N/A   Clear
10:14 PM 35.6 °F 32.8 °F 24.8 °F 65% 29.93 in 10.0 mi WSW 3.5 mph - N/A   Clear
10:33 PM 35.6 °F - 24.8 °F 65% 29.93 in 10.0 mi Calm Calm - N/A   Clear
10:54 PM 30.2 °F 25.4 °F 24.8 °F 80% 29.94 in 10.0 mi SW 4.6 mph - N/A   Clear
11:13 PM 33.8 °F 29.6 °F 24.8 °F 70% 29.95 in 10.0 mi WSW 4.6 mph - N/A   Clear
11:34 PM 35.6 °F 32.8 °F 24.8 °F 65% 29.94 in 10.0 mi WSW 3.5 mph - N/A   Clear
11:54 PM 33.8 °F 30.8 °F 24.8 °F 70% 29.93 in 10.0 mi SSW 3.5 mph - N/A   Clear